Location: Buckland
(65.9785°N, 161.1281°W)
Time: 19:08:13
(UTC+00:00)

Transit 4A - Pass Details

Date: 08 October 2022
Orbit: 871 x 972 km, 66.8° (Epoch: 01 December)

Event Time Altitude Azimuth Distance (km) Brightness Sun altitude
Exits shadow 14:49:15 12° 295° (WNW) 2,462 9.7 -15.8°
Maximum altitude 14:54:43 55° 220° (SW) 1,058 7.9 -15.2°
Drops below altitude 10° 15:00:23 10° 145° (SE) 2,525 10.4 -14.7°
Sets 15:02:53 0° 141° (SE) 3,459 11.2 -14.5°
